Cloud_Cover
5 5 5 5 5 5 5 0 2 2 6 100 100 97 50 50 90 45 5 55 64 6 38 2 4 15 21 72 5 0 0 0 0 0 0 0 0 0 0 0 0 0 0
3 1 0 55 11 1 5 5 2 0 47 100 100 100 30 5 5 5 5 7 22 0 5 36 15 6 3 0 0 0 0 0 0 0 0 0 0 0 0 0 0 0 0
0 6 5 97 0 0 1 1 0 3 50 77 98 93 21 5 4 0 0 8 2 3 3 78 19 15 0 0 0 0 0 0 0 0 0 0 0 0 0 0 0 0 0
0 4 8 38 0 0 14 3 0 0 0 0 48 33 0 0 0 2 3 17 8 81 57 85 84 17 0 0 0 0 0 0 0 0 0 0 0 0 2 0 0 0 0
0 0 4 65 6 27 0 0 0 1 0 74 2 3 4 4 4 0 1 23 19 96 100 72 7 0 0 0 0 0 0 0 0 0 0 42 84 43 30 1 15 0 0
0 1 1 100 98 5 4 6 34 17 62 91 0 0 0 0 0 2 5 5 5 50 6 5 0 1 4 1 5 0 0 0 0 0 11 4 99 0 0 10 6 68 9
5 5 9 100 100 26 2 5 46 2 97 2 0 0 3 1 0 0 0 2 3 5 5 3 5 3 2 8 1 0 0 0 0 0 7 14 66 0 0 23 3 19 64
12 5 22 100 100 62 5 5 1 1 5 22 4 3 0 0 0 0 0 0 2 4 5 5 5 4 11 0 0 0 0 0 5 8 1 19 1 1 41 22 29 94 83
86 45 13 61 21 5 53 5 5 3 5 11 94 5 0 0 0 0 0 2 0 8 44 1 15 1 0 0 0 0 0 0 0 0 0 0 0 43 43 25 63 76 43
100 100 100 76 25 64 54 5 5 4 5 97 100 92 7 0 0 0 0 3 4 79 0 13 8 0 0 0 0 0 0 0 0 0 0 0 73 77 30 30 44 78 15
29 9 13 10 5 12 5 8 5 4 12 83 100 100 6 2 0 10 0 0 4 63 3 17 1 0 0 0 0 0 0 0 0 0 0 37 4 16 43 75 82 74 19
100 30 60 73 30 7 5 5 5 5 9 77 79 48 5 2 0 0 0 5 1 0 18 24 0 0 0 0 0 0 0 0 0 0 2 0 3 23 24 0 0 4 0
100 100 42 12 5 5 5 42 97 100 100 100 22 16 6 5 22 47 82 6 0 13 67 20 0 0 0 4 3 0 0 0 0 0 2 0 5 19 2 3 0 0 0
100 100 100 95 74 34 40 24 59 73 74 86 41 51 26 5 25 17 41 95 9 0 15 7 0 0 0 0 0 0 0 0 0 0 8 0 0 0 0 0 0 0 0
77 100 100 100 100 95 24 16 16 25 18 77 10 82 5 9 5 10 33 100 26 7 0 0 2 0 0 2 0 2 0 0 0 0 0 0 0 0 0 0 0 0 0
86 15 98 100 100 100 100 98 20 20 5 5 61 53 64 15 5 7 43 100 75 26 5 2 0 0 0 0 0 0 0 0 0 0 0 9 0 0 0 0 0 0 0
84 84 10 18 30 61 100 100 100 68 37 5 14 19 74 7 62 6 5 63 52 41 10 5 0 1 2 5 0 0 0 0 0 0 0 0 0 0 0 0 0 0 0
5 18 100 100 90 88 94 100 100 100 98 30 12 13 8 24 79 5 10 5 15 33 26 5 5 5 5 5 0 2 0 0 2 5 0 0 0 0 0 0 0 0 4
27 13 36 22 12 5 5 93 100 83 100 47 54 18 5 18 10 91 99 100 76 43 19 5 5 5 5 20 5 5 3 5 1 0 0 0 0 0 0 0 0 0 0
50 79 4 5 0 1 4 67 100 100 100 89 51 61 74 30 24 90 99 100 100 69 52 55 25 36 5 20 46 26 54 5 9 49 5 13 5 5 0 0 0 0 0
16 5 5 94 100 10 51 100 100 100 100 100 100 98 90 100 63 33 20 19 80 100 97 100 100 100 100 31 24 12 42 100 100 100 100 66 98 91 55 5 5 5 1
100 100 89 98 100 100 84 54 12 58 100 100 100 100 100 100 97 38 66 91 100 84 68 93 70 85 99 100 100 100 100 100 100 100 100 100 100 100 56 18 12 12 13
96 100 100 95 100 100 100 100 100 74 100 91 100 100 96 90 76 62 92 98 100 100 87 97 88 87 83 100 100 100 100 96 97 97 85 100 100 100 100 100 66 23 24
64 10 95 100 100 100 100 100 100 100 100 98 92 98 90 100 100 100 100 100 100 100 100 100 99 98 44 100 100 100 100 100 100 100 99 100 100 100 100 100 85 92 100
5 5 6 59 100 100 100 100 100 100 100 100 100 100 100 100 100 100 100 100 100 100 100 100 100 100 100 100 97 100 100 100 100 100 100 100 100 100 100 100 100 100 100
7 5 5 8 84 98 100 100 100 100 100 100 100 100 100 100 100 100 100 100 100 100 100 100 100 100 100 100 100 100 100 100 100 100 100 100 100 100 100 100 100 100 100